Date String (YYYY-MM-DD hh:mm:ss) UTC,Instrument flags,Ambient pressure (hPa),Sample flow (lpm),Bypass flow (lpm),Sample temperature (°C),Ambient temperature (°C),ASC tube jacket temperature (°C),LED temperature (°C),Box temperature (°C),Sample RH (%),Span deviation,Mass concentration (μg/m³),Mass concentration (μg/m³),Mass concentration (μg/m³)
DateTimeUTC,F1_M11,P_M11,Q1_M11,Q2_M11,T1_M11,T2_M11,T3_M11,T4_M11,T5_M11,U1_M11,ZSPAN_M11,X0_M11,X2_M11,X1_M11
2022-10-27 08:00:00,,0819.4,5.00,0.00,26.8,25.2,00.0,35.7,28.7,13.2,0000.0,0006.10,0002.12,0001.51
2022-10-27 08:01:00,,0819.4,5.00,0.00,26.8,25.2,00.0,35.7,28.7,13.2,0000.0,0006.96,0002.10,0001.52
2022-10-27 08:02:00,,0819.4,4.99,0.00,26.8,25.2,00.0,35.7,28.7,13.2,0000.0,0006.82,0002.11,0001.52
2022-10-27 08:03:00,,0819.4,4.99,0.00,26.8,25.2,00.0,35.7,28.7,13.2,0000.0,0006.27,0002.10,0001.53
2022-10-27 08:04:00,,0819.4,4.99,0.00,26.8,25.2,00.0,35.7,28.7,13.2,0000.0,0006.63,0002.13,0001.54
2022-10-27 08:05:00,,0819.4,5.00,0.00,26.8,25.2,00.0,35.7,28.7,13.2,0000.0,0006.06,0002.09,0001.54
2022-10-27 08:06:00,,0819.4,5.00,0.00,26.8,25.2,00.0,35.6,28.7,13.2,0000.0,0005.59,0002.07,0001.54
2022-10-27 08:07:00,,0819.4,5.01,0.00,26.8,25.2,00.0,35.6,28.7,13.2,0000.0,0005.83,0002.07,0001.54
2022-10-27 08:08:00,,0819.4,5.01,0.00,26.8,25.2,00.0,35.6,28.7,13.2,0000.0,0006.18,0002.08,0001.53
2022-10-27 08:09:00,,0819.4,5.01,0.00,26.8,25.2,00.0,35.6,28.7,13.2,0000.0,0006.33,0002.13,0001.53
2022-10-27 08:10:00,,0819.4,5.01,0.00,26.8,25.2,00.0,35.6,28.7,13.1,0000.0,0006.37,0002.09,0001.53
2022-10-27 08:11:00,,0819.4,4.98,0.00,26.8,25.2,00.0,35.6,28.7,13.1,0000.0,0006.77,0002.07,0001.52
2022-10-27 08:12:00,,0819.4,5.02,0.00,26.8,25.2,00.0,35.6,28.7,13.1,0000.0,0006.48,0002.07,0001.51
2022-10-27 08:13:00,,0819.4,4.99,0.00,26.8,25.2,00.0,35.6,28.7,13.0,0000.0,0006.42,0002.05,0001.49
2022-10-27 08:14:00,,0819.4,4.99,0.00,26.8,25.2,00.0,35.6,28.7,13.1,0000.0,0006.31,0002.05,0001.48
2022-10-27 08:15:00,,0819.4,4.99,0.00,26.8,25.2,00.0,35.6,28.7,13.1,0000.0,0005.84,0002.00,0001.47
2022-10-27 08:16:00,,0819.4,5.02,0.00,26.8,25.2,00.0,35.6,28.7,13.1,0000.0,0005.76,0001.96,0001.45
2022-10-27 08:17:00,,0819.4,4.99,0.00,26.8,25.2,00.0,35.6,28.7,13.1,0000.0,0005.73,0001.94,0001.44
2022-10-27 08:18:00,,0819.4,4.99,0.00,26.8,25.2,00.0,35.6,28.7,13.0,0000.0,0005.40,0001.89,0001.43
2022-10-27 08:19:00,,0819.4,4.99,0.00,26.8,25.2,00.0,35.6,28.6,13.1,0000.0,0004.98,0001.86,0001.42
2022-10-27 08:20:00,,0819.4,5.00,0.00,26.8,25.2,00.0,35.6,28.6,13.0,0000.0,0004.81,0001.80,0001.41
2022-10-27 08:21:00,,0819.4,5.02,0.00,26.8,25.1,00.0,35.6,28.7,12.9,0000.0,0004.79,0001.81,0001.40
2022-10-27 08:22:00,,0819.4,4.99,0.00,26.8,25.1,00.0,35.6,28.7,12.9,0000.0,0004.31,0001.82,0001.39
2022-10-27 08:23:00,,0819.4,4.99,0.00,26.8,25.1,00.0,35.6,28.7,13.0,0000.0,0003.94,0001.81,0001.38
2022-10-27 08:24:00,,0819.4,5.00,0.00,26.8,25.1,00.0,35.6,28.7,13.0,0000.0,0004.88,0001.82,0001.39
2022-10-27 08:25:00,,0819.4,4.99,0.00,26.8,25.1,00.0,35.6,28.6,13.0,0000.0,0004.85,0001.81,0001.40
2022-10-27 08:26:00,,0819.5,5.00,0.00,26.8,25.1,00.0,35.6,28.7,13.1,0000.0,0005.72,0001.84,0001.40
2022-10-27 08:27:00,,0819.5,4.99,0.00,26.8,25.1,00.0,35.6,28.7,13.1,0000.0,0005.91,0001.89,0001.42
2022-10-27 08:28:00,,0819.6,5.00,0.00,26.8,25.1,00.0,35.6,28.7,13.1,0000.0,0006.00,0001.92,0001.44
2022-10-27 08:29:00,,0819.6,5.00,0.00,26.8,25.2,00.0,35.6,28.7,13.1,0000.0,0006.09,0001.97,0001.46
2022-10-27 08:30:00,,0819.6,5.00,0.00,26.8,25.2,00.0,35.6,28.7,13.1,0000.0,0006.18,0002.04,0001.48
2022-10-27 08:31:00,,0819.7,5.00,0.00,26.8,25.2,00.0,35.6,28.7,13.1,0000.0,0006.17,0002.03,0001.48
2022-10-27 08:32:00,,0819.7,5.01,0.00,26.8,25.2,00.0,35.6,28.7,13.1,0000.0,0006.08,0002.05,0001.49
2022-10-27 08:33:00,,0819.6,5.00,0.00,26.8,25.2,00.0,35.6,28.7,13.3,0000.0,0006.20,0002.09,0001.50
2022-10-27 08:34:00,,0819.7,5.01,0.00,26.8,25.2,00.0,35.6,28.7,13.4,0000.0,0005.49,0002.06,0001.50
2022-10-27 08:35:00,,0819.7,5.00,0.00,26.7,25.1,00.0,35.6,28.6,13.5,0000.0,0004.79,0002.07,0001.50
2022-10-27 08:36:00,,0819.8,4.99,0.00,26.7,25.0,00.0,35.6,28.6,13.6,0000.0,0004.83,0002.07,0001.50
2022-10-27 08:37:00,,0819.7,4.99,0.00,26.7,24.9,00.0,35.5,28.5,13.7,0000.0,0004.09,0002.09,0001.53
2022-10-27 08:38:00,,0819.7,5.00,0.00,26.7,24.8,00.0,35.5,28.5,13.8,0000.0,0003.84,0002.09,0001.53
2022-10-27 08:39:00,,0819.7,5.02,0.00,26.7,24.8,00.0,35.5,28.5,13.8,0000.0,0003.66,0002.08,0001.53
2022-10-27 08:40:00,,0819.8,5.00,0.00,26.6,24.8,00.0,35.5,28.4,13.8,0000.0,0003.97,0002.06,0001.53
2022-10-27 08:41:00,,0819.8,5.00,0.00,26.6,24.7,00.0,35.5,28.4,13.9,0000.0,0004.11,0002.03,0001.53
2022-10-27 08:42:00,,0819.9,4.99,0.00,26.6,24.7,00.0,35.5,28.4,14.0,0000.0,0004.20,0002.09,0001.55
2022-10-27 08:43:00,,0819.9,5.00,0.00,26.6,24.7,00.0,35.5,28.4,14.0,0000.0,0004.24,0002.10,0001.58
2022-10-27 08:44:00,,0819.8,4.99,0.00,26.5,24.6,00.0,35.4,28.4,14.1,0000.0,0004.28,0002.10,0001.61
2022-10-27 08:45:00,,0819.9,5.00,0.00,26.5,24.6,00.0,35.4,28.3,14.1,0000.0,0004.45,0002.16,0001.65
2022-10-27 08:46:00,,0819.9,5.02,0.00,26.5,24.7,00.0,35.4,28.3,14.1,0000.0,0004.24,0002.17,0001.70
2022-10-27 08:47:00,,0819.9,5.00,0.00,26.5,24.6,00.0,35.4,28.3,14.1,0000.0,0004.55,0002.22,0001.75
2022-10-27 08:48:00,,0820.0,4.99,0.00,26.5,24.7,00.0,35.4,28.3,14.2,0000.0,0004.57,0002.23,0001.79
2022-10-27 08:49:00,,0819.9,4.99,0.00,26.5,24.7,00.0,35.4,28.3,14.2,0000.0,0004.51,0002.22,0001.81
2022-10-27 08:50:00,,0820.0,5.00,0.00,26.4,24.7,00.0,35.3,28.3,14.2,0000.0,0004.76,0002.21,0001.83
2022-10-27 08:51:00,,0819.9,5.00,0.00,26.4,24.7,00.0,35.3,28.3,14.3,0000.0,0004.62,0002.24,0001.85
2022-10-27 08:52:00,,0819.9,5.00,0.00,26.4,24.7,00.0,35.3,28.2,14.3,0000.0,0004.52,0002.26,0001.86
2022-10-27 08:53:00,,0819.9,5.00,0.00,26.4,24.7,00.0,35.3,28.2,14.3,0000.0,0004.60,0002.24,0001.87
2022-10-27 08:54:00,,0820.0,5.00,0.00,26.4,24.7,00.0,35.3,28.2,14.2,0000.0,0004.68,0002.25,0001.88
2022-10-27 08:55:00,,0819.9,5.00,0.00,26.4,24.7,00.0,35.3,28.2,14.2,0000.0,0004.49,0002.22,0001.88
2022-10-27 08:56:00,,0819.9,4.99,0.00,26.4,24.6,00.0,35.3,28.2,14.2,0000.0,0004.29,0002.19,0001.88
2022-10-27 08:57:00,,0819.9,4.99,0.00,26.3,24.6,00.0,35.3,28.2,14.2,0000.0,0004.02,0002.18,0001.88
2022-10-27 08:58:00,,0819.9,5.00,0.00,26.3,24.6,00.0,35.2,28.2,14.1,0000.0,0003.66,0002.17,0001.87
2022-10-27 08:59:00,,0820.0,5.00,0.00,26.3,24.6,00.0,35.2,28.2,14.1,0000.0,0003.67,0002.19,0001.88
